Location: Unspecified
(41.1637°N, 24.2901°E)
Time: 18:07:09
(UTC+01:00)

ISS - Pass Details

Date: 22 January 2020
Orbit: 415 x 421 km, 51.6° (Epoch: 18 January)

Event Time Altitude Azimuth Distance (km) Brightness Sun altitude
Rises 18:23:14 0° 253° (WSW) 2,357 1.5 -21.8°
Reaches altitude 10° 18:25:25 10° 261° (W) 1,495 0.2 -22.2°
Enters shadow 18:28:17 37° 318° (NW) 670 -2.5 -22.8°
